Regional Weather Roundup
Issued by NWS

Home | Current Version | Previous Version | Text Only | Print | Product List | Glossary Off
Versions: 1 2 3 4 5 6 7 8 9 10 11 12 13 14 15 16 17 18 19 20 21 22 23 24 25 26 27 28 29 30 31 32 33 34 35 36 37 38 39 40 41 42 43 44 45 46 47 48 49 50

000
ASUS43 KLOT 261104
RWRIL

ILLINOIS REGIONAL WEATHER ROUNDUP
NATIONAL WEATHER SERVICE CHICAGO/ROMEOVILLE IL
600 AM CDT MON JUN 26 2017

NOTE: "FAIR" INDICATES FEW OR NO CLOUDS BELOW 12,000 FEET WITH NO
SIGNIFICANT WEATHER AND/OR OBSTRUCTIONS TO VISIBILITY.

* THESE STATIONS ARE NOT UNDER NWS QUALITY CONTROL. THEY ALSO MAY NOT
  REPORT WEATHER SUCH AS PRECIPITATION OR FOG.

ILZ001-002-007-009-015-016-024-261200-
NORTHWEST ILLINOIS

CITY           SKY/WX    TMP DP  RH WIND       PRES   REMARKS
MOLINE         CLOUDY    52  46  80 SW5       30.17R
STERLING*      PTCLDY    53  49  86 W5        30.15S
SAVANNA*       CLOUDY    56  47  70 W3        30.14S
$$

ILZ003-004-008-010-011-017-018-261200-
NORTH CENTRAL ILLINOIS

CITY           SKY/WX    TMP DP  RH WIND       PRES   REMARKS
ROCKFORD       CLOUDY    53  48  83 CALM      30.15R
FREEPORT*      CLOUDY    51  46  84 W5        30.15R
ROCHELLE*      CLOUDY    50  49  96 CALM      30.14S
DE KALB*       MOCLDY    53  49  86 W5        30.14S
PERU*          CLEAR     51  47  86 W7        30.15S
$$

ILZ005-006-012>014-019>023-261200-
NORTHEAST ILLINOIS

CITY           SKY/WX    TMP DP  RH WIND       PRES   REMARKS
CHICAGO-OHARE  PTCLDY    56  49  77 W8        30.11R
CHICAGO-MIDWAY PTCLDY    56  50  80 W8        30.12R
AURORA         CLEAR     52  49  89 CALM      30.13R
LANSING*       CLEAR     53  48  84 W6        30.13R
JOLIET*        CLEAR     55  51  85 W5        30.14R
WAUKEGAN       CLEAR     53  52  96 CALM      30.10R
DUPAGE AIRPORT CLOUDY    52  50  93 W5        30.12R
WHEELING       CLEAR     55  51  86 W6        30.13R
MORRIS*        CLEAR     53  49  88 W7        30.12F
ROMEOVILLE*    CLEAR     52  47  84 W5        30.13R
$$

LMZ740>746-261200-
SOUTHERN LAKE MICHIGAN

STATION/POSITION SKY/WX   TEMP    WIND        PRES    VSBY  WAVE
                          AIR SEA DIR/SP/G                  HT/PER
                          (F)     (DEG/KT/KT) (MB)    (MI)  (FT/S)
SOUTHERN BUOY              60 61  300/ 16/ 17 1017.8          3/ 4
WILMETTE HARBOR            58 63  260/ 12/ 16   N/A           1/ 2
HARRISON CRIB              60     270/ 13/ 15   N/A
BURNHAM HARBOR             59                   N/A
CALUMET HARBOR             56     240/  4/  5 1019.2R
BURNS HARBOR               58     240/  7/ 10 1020.0R
MICHIGAN CITY              58     210/ 10/ 13   N/A
MICHIGAN CITY 6N           62 66  280/ 12/ 16   N/A           3/ 4
ST. JOSEPH                 63 68  290/ 16/ 19 1018.9R         4/ 5
$$

ILZ025>027-034>036-040-047-049-050-058-095>099-261200-
WEST-CENTRAL ILLINOIS

CITY           SKY/WX    TMP DP  RH WIND       PRES   REMARKS
QUINCY         CLEAR     51  49  92 SW3       30.20R
GALESBURG*     CLEAR     50  46  84 SW3       30.19S
MACOMB*        CLEAR     49  47  92 W6        30.21S
JACKSONVILLE*  CLEAR     51  48  87 SW3       30.20S
PITTSFIELD*    CLEAR     56  49  79 W5        30.22R
$$

ILZ028>032-037-038-041>044-048-051>054-059>061-261200-
CENTRAL ILLINOIS

CITY           SKY/WX    TMP DP  RH WIND       PRES   REMARKS
PONTIAC        CLEAR     53  52  96 CALM      30.17R
BLOOMINGTON    CLEAR     54  48  80 W6        30.18R
DECATUR        PTCLDY    55  48  77 W6        30.18S
PEORIA         CLEAR     53  48  83 W3        30.18R
LACON*         CLEAR     51  48  92 CALM      30.16R
LINCOLN*       CLEAR     56  49  77 CALM      30.19R
SPRINGFIELD    CLEAR     53  48  83 W6        30.19R
TAYLORVILLE    CLEAR     51  48  89 CALM      30.20S
$$

ILZ033-039-045-046-055>057-062-063-261200-
EAST-CENTRAL ILLINOIS

CITY           SKY/WX    TMP DP  RH WIND       PRES   REMARKS
CHAMPAIGN        N/A    N/A N/A N/A MISG      30.18R
RANTOUL*       CLEAR     53  50  90 CALM      30.17R
MATTOON        PTCLDY    56  50  80 SW7       30.17R
PARIS*         CLEAR     52  49  89 CALM      30.18S
$$

ILZ079-100>102-261200-
SOUTHWEST ILLINOIS

CITY           SKY/WX    TMP DP  RH WIND       PRES   REMARKS
ALTON          CLEAR     51  51 100 CALM      30.21S
BELLEVILLE     CLEAR     54  50  85 CALM      30.22S
CAHOKIA*       CLEAR     53  49  86 CALM      30.21S
SPARTA*        CLEAR     56  49  75 CALM      30.22S
$$

ILZ064>066-069>071-074>076-080>082-084>086-088>090-092>094-261200-
SOUTH-CENTRAL ILLINOIS

CITY           SKY/WX    TMP DP  RH WIND       PRES   REMARKS
CARBONDALE     CLEAR     58  58 100 CALM      30.21S
CAIRO*         CLOUDY    62  58  86 CALM      30.20F
EFFINGHAM*     CLEAR     52  51  96 CALM      30.21S
MARION         CLEAR     57  55  94 CALM      30.21S
MT. VERNON     CLEAR     50  49  96 CALM      30.21S
CENTRALIA*     CLEAR     53  51  93 CALM      30.20S
SALEM*         CLEAR     54  50  87 CALM      30.21S
METROPOLIS*    PTCLDY    61  55  81 CALM      30.22R
$$

ILZ067-068-072-073-078-083-087-091-261200-
SOUTHEAST ILLINOIS

CITY           SKY/WX    TMP DP  RH WIND       PRES   REMARKS
LAWRENCEVILLE  CLEAR     54  52  93 SW3       30.19S
FLORA*         CLEAR     55  49  80 CALM      30.20S
FAIRFIELD*     CLEAR     52  51  97 CALM      30.19S
HARRISBURG*    CLEAR     56  55  94 CALM      30.21R
ROBINSON*      CLEAR     49  48  99 CALM      30.19S
CARMI*         CLEAR     53  53  98 CALM      30.20S
$$

ABBREVIATIONS USED IN REMARKS
   TC - TEMPERATURE IN CELSIUS
  WCI - WIND CHILL INDEX
   HX - HEAT INDEX
  VSB - VISIBILITY
$$





USA.gov is the U.S. government's official web portal to all federal, state and local government web resources and services.